Location: Boiro
(42.6475°N, 8.8834°W)
Time: 12:52:30
(UTC+01:00)

Altair - Pass Details

Date: 04 December 2021
Orbit: 1501 x 1683 km, 47.2° (Epoch: 21 January)

Event Time Altitude Azimuth Distance (km) Brightness Sun altitude
Rises 22:28:50 0° 294° (WNW) 4,674 10.7 -48.1°
Reaches altitude 10° 22:31:53 10° 293° (WNW) 3,676 10.0 -48.7°
Enters shadow 22:36:34 35° 288° (WNW) 2,258 8.5 -49.5°
